Massena, NY

11:30 AM EDT on April 27, 2017 (GMT -0400)
Massena International-Richards

Weather History for KMSS - February, 2013

Change the Weather History Date:

Tuesday, February 19, 2013

  Actual Average Record
Temperature  
Mean Temperature 22 °F 19 °F  
Max Temperature 33 °F 29 °F 57 °F (1994)
Min Temperature 10 °F 8 °F -19 °F (1967)
Degree Days  
Heating Degree Days 43 46  
Month to date heating degree days 963 920  
Since 1 July heating degree days 5171 5583  
Cooling Degree Days 0 0  
Month to date cooling degree days 0  
Year to date cooling degree days 0  
Moisture  
Dew Point 20 °F    
Average Humidity 71    
Maximum Humidity 92    
Minimum Humidity 49    
Precipitation  
Precipitation 0.25 in 0.06 in 0.79 in (1972)
Month to date precipitation 0.35 1.15  
Year to date precipitation 1.79 3.33  
Sea Level Pressure  
Sea Level Pressure 29.73 in    
Wind  
Wind Speed 9 mph (ENE)    
Max Wind Speed 24 mph    
Max Gust Speed 33 mph    
Visibility 5 miles    
Events Fog , Snow    
T = Trace of Precipitation, MM = Missing Value Source: NWS Daily Summary

Daily Weather History Graph

Daily Weather History Graph

Search for Another Location

Airport or City:

Trip Planner

Search our weather history database for the weather conditions in past years. The results will help you decide how hot, cold, wet, or windy it might be!

Date:

Astronomy

Feb. 19, 2013 Rise Set
Actual Time 6:53 AM EST 5:33 PM EST
Civil Twilight 6:23 AM EST 6:03 PM EST
Nautical Twilight 5:49 AM EST 6:37 PM EST
Astronomical Twilight 5:15 AM EST 7:11 PM EST
Moon 11:55 AM EST (2/19) 2:31 AM EST (2/19)
Length of Visible Light 11h 39m
Length of Day
10h 39m
Waxing Gibbous, 67% of the Moon is Illuminated
Feb 19
Waxing Gibbous
Feb 25
Full
Mar 4
Last Quarter
Mar 11
New
Mar 19
First Quarter

Hourly Weather History & Observations

Time (EST) Temp. Windchill Dew Point Humidity Pressure Visibility Wind Dir Wind Speed Gust Speed Precip Events Conditions
12:53 AM 12.9 °F 6.9 °F 3.0 °F 65% 30.12 in 10.0 mi NE 3.5 mph - N/A   Overcast
1:53 AM 16.0 °F 7.4 °F 3.9 °F 59% 30.12 in 10.0 mi ENE 5.8 mph - N/A   Overcast
2:53 AM 17.1 °F 6.6 °F 3.9 °F 56% 30.08 in 10.0 mi ENE 8.1 mph - N/A   Overcast
3:53 AM 19.0 °F 10.0 °F 3.9 °F 52% 30.04 in 10.0 mi East 6.9 mph - N/A   Overcast
4:53 AM 19.9 °F 10.1 °F 5.0 °F 52% 30.01 in 10.0 mi ENE 8.1 mph - N/A   Overcast
5:53 AM 19.9 °F 10.1 °F 6.1 °F 55% 29.98 in 10.0 mi ENE 8.1 mph - N/A   Overcast
6:53 AM 19.0 °F 6.8 °F 7.0 °F 59% 29.94 in 10.0 mi ENE 11.5 mph - N/A   Mostly Cloudy
7:53 AM 19.0 °F 6.8 °F 9.0 °F 65% 29.90 in 10.0 mi ENE 11.5 mph - N/A   Clear
8:53 AM 19.9 °F 7.9 °F 10.0 °F 65% 29.86 in 10.0 mi ENE 11.5 mph - N/A   Clear
10:53 AM 25.0 °F 12.6 °F 14.0 °F 63% 29.78 in 10.0 mi ENE 15.0 mph - N/A   Scattered Clouds
11:53 AM 28.4 °F 18.5 °F 15.8 °F 59% 29.73 in 10.0 mi ENE 11.5 mph - N/A   Partly Cloudy
1:37 PM 30.2 °F 23.4 °F 17.6 °F 60% 29.67 in 1.8 mi NE 6.9 mph - 0.00 in Snow Light Snow
1:51 PM 28.4 °F 21.2 °F 19.4 °F 69% 29.66 in 2.5 mi ENE 6.9 mph - 0.00 in Snow Light Snow
1:53 PM 28.9 °F 22.8 °F 19.0 °F 67% 29.68 in 3.0 mi ENE 5.8 mph - 0.00 in Snow Light Snow
2:18 PM 28.4 °F 22.2 °F 21.2 °F 74% 29.66 in 1.8 mi ENE 5.8 mph - 0.01 in Snow Light Snow
2:25 PM 28.4 °F 23.3 °F 21.2 °F 74% 29.66 in 1.0 mi ENE 4.6 mph - 0.01 in Snow Light Snow
2:41 PM 28.4 °F 22.2 °F 23.0 °F 80% 29.65 in 1.8 mi ENE 5.8 mph - 0.01 in Snow Light Snow
2:53 PM 28.9 °F 23.9 °F 23.0 °F 78% 29.67 in 1.8 mi ENE 4.6 mph - 0.02 in Snow Light Snow
3:14 PM 28.4 °F 21.2 °F 23.0 °F 80% 29.64 in 1.2 mi ENE 6.9 mph - 0.01 in Snow Light Snow
3:25 PM 28.4 °F 22.2 °F 23.0 °F 80% 29.63 in 1.5 mi East 5.8 mph - 0.02 in Snow Light Snow
3:50 PM 28.4 °F 19.7 °F 24.8 °F 86% 29.62 in 2.0 mi ENE 9.2 mph - 0.03 in Snow Light Snow
3:53 PM 28.9 °F 20.4 °F 24.1 °F 82% 29.64 in 2.0 mi ENE 9.2 mph - 0.03 in Snow Light Snow
4:27 PM 28.4 °F 22.2 °F 24.8 °F 86% 29.62 in 1.2 mi ENE 5.8 mph - 0.02 in Snow Light Snow
4:33 PM 28.4 °F 22.2 °F 24.8 °F 86% 29.62 in 0.8 mi East 5.8 mph - 0.02 in Snow Light Snow
4:53 PM 28.9 °F 21.1 °F 25.0 °F 85% 29.62 in 0.5 mi ENE 8.1 mph - 0.04 in Fog , Snow Snow
5:07 PM 28.4 °F 21.2 °F 24.8 °F 86% 29.61 in 1.2 mi ENE 6.9 mph - 0.00 in Snow Light Snow
5:17 PM 28.4 °F 22.2 °F 24.8 °F 86% 29.61 in 0.5 mi East 5.8 mph - 0.01 in Fog , Snow Snow
5:44 PM 28.4 °F 23.3 °F 24.8 °F 86% 29.62 in 1.0 mi ENE 4.6 mph - 0.04 in Snow Light Snow
5:53 PM 28.0 °F 22.8 °F 25.0 °F 88% 29.64 in 0.8 mi ENE 4.6 mph - 0.06 in Snow Light Snow
7:25 PM 28.4 °F - 26.6 °F 93% 29.62 in 1.2 mi Calm Calm - 0.02 in Snow Light Snow
7:53 PM 33.1 °F 23.0 °F 30.0 °F 89% 29.64 in 1.0 mi SW 15.0 mph 20.7 mph 0.03 in Snow Light Snow
8:03 PM 33.8 °F 23.9 °F 30.2 °F 87% 29.63 in 2.0 mi SW 15.0 mph - 0.00 in Snow Light Snow
8:14 PM 33.8 °F 22.2 °F 30.2 °F 87% 29.63 in 3.0 mi SW 20.7 mph - 0.00 in Snow Light Snow
8:22 PM 33.8 °F 22.5 °F 30.2 °F 87% 29.63 in 2.0 mi SW 19.6 mph 33.4 mph 0.00 in Snow Light Snow
8:32 PM 33.8 °F 23.2 °F 30.2 °F 87% 29.64 in 3.0 mi SW 17.3 mph 25.3 mph N/A Snow Light Snow
8:53 PM 32.0 °F 20.8 °F 28.0 °F 85% 29.66 in 3.0 mi SW 17.3 mph 26.5 mph 0.00 in Snow Light Snow
9:53 PM 32.0 °F 21.2 °F 25.0 °F 75% 29.66 in 10.0 mi SW 16.1 mph 21.9 mph 0.00 in   Overcast
10:53 PM 30.9 °F 20.7 °F 23.0 °F 72% 29.65 in 10.0 mi SW 13.8 mph - N/A   Overcast
11:53 PM 30.0 °F 20.0 °F 21.9 °F 72% 29.65 in 10.0 mi SW 12.7 mph - N/A   Overcast